Regional Weather Roundup
Issued by NWS

Home | Current Version | Previous Version | Text Only | Print | Product List | Glossary Off
Versions: 1 2 3 4 5 6 7 8 9 10 11 12 13 14 15 16 17 18 19 20 21 22 23 24 25 26 27 28 29 30 31 32 33 34 35 36 37 38 39 40 41 42 43 44 45 46 47 48 49 50

000
ASUS43 KLOT 271701
RWRIL

ILLINOIS REGIONAL WEATHER ROUNDUP
NATIONAL WEATHER SERVICE CHICAGO/ROMEOVILLE IL
1200 PM CDT THU AUG 27 2015

NOTE: "FAIR" INDICATES FEW OR NO CLOUDS BELOW 12,000 FEET WITH NO
SIGNIFICANT WEATHER AND/OR OBSTRUCTIONS TO VISIBILITY.

* THESE STATIONS ARE NOT UNDER NWS QUALITY CONTROL. THEY ALSO MAY NOT
  REPORT WEATHER SUCH AS PRECIPITATION OR FOG.

ILZ001-002-007-009-015-016-024-271800-
NORTHWEST ILLINOIS

CITY           SKY/WX    TMP DP  RH WIND       PRES   REMARKS
MOLINE         PTSUNNY   72  58  61 SW5       30.19R
STERLING*      SUNNY     72  57  60 S6        30.18S
$$

ILZ003-004-008-010-011-017-018-271800-
NORTH CENTRAL ILLINOIS

CITY           SKY/WX    TMP DP  RH WIND       PRES   REMARKS
ROCKFORD       MOSUNNY   71  55  56 S9        30.21R
FREEPORT*      MOSUNNY   70  56  61 S8        30.21S
$$

ILZ005-006-012>014-019>023-271800-
NORTHEAST ILLINOIS

CITY           SKY/WX    TMP DP  RH WIND       PRES   REMARKS
CHICAGO-OHARE  PTSUNNY   70  52  52 SE7       30.19S
CHICAGO-MIDWAY PTSUNNY   69  52  54 VRB3      30.19S
AURORA         PTSUNNY   69  55  60 VRB3      30.22R
LANSING*       CLOUDY    67  55  65 E7        30.19F
WAUKEGAN       SUNNY     68  54  60 VRB7      30.19S
DUPAGE AIRPORT CLOUDY    68  54  60 VRB7      30.20R
WHEELING       CLOUDY    68  51  54 CALM      30.20S
NORTHERLY ISL    N/A     65  56  72 NE2         N/A
$$

LMZ740>746-271800-
SOUTHERN LAKE MICHIGAN

STATION/POSITION SKY/WX   TEMP    WIND        PRES    VSBY  WAVE
                          AIR SEA DIR/SP/G                  HT/PER
                          (F)     (DEG/KT/KT) (MB)    (MI)  (FT/S)
SOUTHERN BUOY              64 67  150/ 10/ 12 1022.3F         1
HARRISON CRIB              64     330/  1/  1   N/A
BURNHAM HARBOR             65      50/  2/  3   N/A
CALUMET HARBOR             64      50/  4/  4   N/A
BURNS HARBOR               66     110/  1/  6 1023.0F
MICHIGAN CITY              64      70/  7/ 10   N/A
MICHIGAN CITY 6N           65 71  130/  6/  8   N/A           1/ 2
ST. JOSEPH                 65 71  170/  6/  8   N/A           1
$$

ILZ025>027-034>036-040-047-049-050-058-095>099-271800-
WEST-CENTRAL ILLINOIS

CITY           SKY/WX    TMP DP  RH WIND       PRES   REMARKS
QUINCY         PTSUNNY   72  57  59 S9        30.20R
MACOMB*        PTSUNNY   71  58  62 S5        30.22R
$$

ILZ028>032-037-038-041>044-048-051>054-059>061-271800-
CENTRAL ILLINOIS

CITY           SKY/WX    TMP DP  RH WIND       PRES   REMARKS
DECATUR        SUNNY     73  58  59 VRB3      30.17S
PEORIA         SUNNY     73  55  53 CALM      30.20R
SPRINGFIELD    SUNNY     72  57  59 SW5       30.19R
TAYLORVILLE    NOT AVBL
$$

ILZ033-039-045-046-055>057-062-063-271800-
EAST-CENTRAL ILLINOIS

CITY           SKY/WX    TMP DP  RH WIND       PRES   REMARKS
CHAMPAIGN      MOSUNNY   72  59  63 VRB6      30.17F
MATTOON        SUNNY     74  57  55 VRB3      30.14F
$$

ILZ079-100>102-271800-
SOUTHWEST ILLINOIS

CITY           SKY/WX    TMP DP  RH WIND       PRES   REMARKS
CAHOKIA*       SUNNY     75  55  49 VRB6      30.17R
$$

ILZ064>066-069>071-074>076-080>082-084>086-088>090-092>094-271800-
SOUTH-CENTRAL ILLINOIS

CITY           SKY/WX    TMP DP  RH WIND       PRES   REMARKS
CARBONDALE     SUNNY     75  56  51 E5        30.13F
MT. VERNON     SUNNY     77  57  50 SE6       30.15S
SALEM*         SUNNY     74  55  52 SE3       30.15S
$$

ILZ067-068-072-073-078-083-087-091-271800-
SOUTHEAST ILLINOIS

CITY           SKY/WX    TMP DP  RH WIND       PRES   REMARKS
LAWRENCEVILLE  SUNNY     77  58  51 SE6       30.13F
FLORA*         SUNNY     76  57  52 SE7       30.14F
ROBINSON*      MOSUNNY   76  60  56 S5        30.15F
$$

ABBREVIATIONS USED IN REMARKS
   TC - TEMPERATURE IN CELSIUS
  WCI - WIND CHILL INDEX
   HX - HEAT INDEX
  VSB - VISIBILITY
$$




USA.gov is the U.S. government's official web portal to all federal, state and local government web resources and services.